Regional Weather Roundup
Issued by NWS

Home | Current Version | Previous Version | Text Only | Print | Product List | Glossary Off
Versions: 1 2 3 4 5 6 7 8 9 10 11 12 13 14 15 16 17 18 19 20 21 22 23 24 25 26 27 28 29 30 31 32 33 34 35 36 37 38 39 40 41 42 43 44 45 46 47 48 49 50

000
ASUS45 KCYS 260710
RWRWY

WYOMING REGIONAL WEATHER ROUNDUP
NATIONAL WEATHER SERVICE CHEYENNE WY
1200 AM MST THU FEB 26 2015

NOTE:  "FAIR" INDICATES FEW OR NO CLOUDS BELOW 12,000 FEET
WITH NO SIGNIFICANT WEATHER AND/OR OBSTRUCTIONS TO VISIBILITY.

WYZ001-260800-
YELLOWSTONE NATIONAL PARK

CITY           SKY/WX    TMP DP  RH WIND       PRES   REMARKS
LK YELLOWSTONE   N/A      4   0  83 CALM      30.06F
W YELLOWSTONE  NOT AVBL

$$
WYZ002>013-054>058-071-098>099-260800-
NORTHERN WYOMING

CITY           SKY/WX    TMP DP  RH WIND       PRES   REMARKS
JACKSON        MOCLDY    12   7  79 N15       30.06F WCI  -4
CODY           CLOUDY    10   9  92 N6        30.19F WCI   1
GREYBULL       MOCLDY    16   4  59 NW17      30.25R WCI   0
WORLAND        CLOUDY    19  10  68 N8        30.23S WCI   9
SHERIDAN       LGT SNOW  11   7  84 NE5       30.31S FOG     WCI   3
BUFFALO        FLURRIES   7   4  87 CALM      30.23S
GILLETTE       CLOUDY     7   2  80 N13       30.27S HAZE    WCI  -9
HULETT         FAIR       5   1  85 CALM      30.28F
NEWCASTLE      FAIR       9   0  66 N14       30.26F WCI  -8

$$
WYZ014>020-022>026-101>103-260800-
CENTRAL WYOMING

CITY           SKY/WX    TMP DP  RH WIND       PRES   REMARKS
BIG PINEY      CLOUDY    19  15  84 S9        30.08F WCI   8
PINEDALE       CLOUDY    12  10  92 E3        30.08F
DUBOIS         CLOUDY    14   9  79 NW7       30.04S WCI   4
LANDER         CLOUDY    20  16  84 CALM      30.12F
RIVERTON       CLOUDY    19  14  81 NE3       30.15S
CASPER         CLOUDY    11   4  73 NE8       30.19F WCI  -1
DOUGLAS        CLOUDY    11   4  73 NW9       30.23S WCI  -2

$$
WYZ021-027>030-104>119-260800-
SOUTHERN WYOMING

CITY           SKY/WX    TMP DP  RH WIND       PRES   REMARKS
EVANSTON       CLOUDY    25  17  72 W3        30.05F
FORT BRIDGER   PTSUNNY   26  19  74 CALM      30.08F
ROCK SPRINGS   CLOUDY    15  11  83 E12       30.10F WCI   2
DIXON          PTSUNNY   20  13  76 NE12      30.10S WCI   8
RAWLINS        CLOUDY    13   9  84 CALM      30.08F
SARATOGA       CLOUDY    10   9  92 W6        30.07S WCI   1
LARAMIE        CLOUDY     7   5  91 W5        30.04F WCI  -2
CHEYENNE       FLURRIES  11   5  77 N13G21    30.09F WCI  -4
TORRINGTON     FAIR      12  -1  56 N16       30.24S WCI  -5
PINE BLUFFS    FAIR      12   7  79 N10       30.18R WCI  -1

$$



USA.gov is the U.S. government's official web portal to all federal, state and local government web resources and services.